• In Hungary
  • List of Countries
  • For 7 days
  • Water Temperature
  • Satellite Maps
  • Weather Map
  • News
  • Weather Widgets
  • user-avatar
    Login

    Hourly Weather Miechowice

    Today, 21 October, Saturday

    Time Temperature Precipitation Wind Pressure Humidity
    00:00 +12°C° 0 mm 3 mps 753 mmHg 85%
    01:00 +12°C° 0 mm 2 mps 752 mmHg 88%
    02:00 +12°C° 0.2 mm 2 mps 752 mmHg 87%
    03:00 +11°C° 0.2 mm 3 mps 752 mmHg 86%
    04:00 +11°C° 0.2 mm 3 mps 752 mmHg 85%
    05:00 +11°C° 0 mm 3 mps 752 mmHg 87%
    06:00 +10°C° 0 mm 3 mps 752 mmHg 89%
    07:00 +10°C° 0 mm 2 mps 752 mmHg 91%
    08:00 +11°C° 0.1 mm 3 mps 752 mmHg 88%
    09:00 +12°C° 0.1 mm 3 mps 752 mmHg 85%
    10:00 +13°C° 0.1 mm 3 mps 752 mmHg 82%
    11:00 +13°C° 0.1 mm 3 mps 752 mmHg 80%
    12:00 +14°C° 0.1 mm 3 mps 752 mmHg 77%
    13:00 +14°C° 0.1 mm 4 mps 752 mmHg 74%
    14:00 +14°C° 0.1 mm 3 mps 752 mmHg 75%
    15:00 +14°C° 0.1 mm 3 mps 752 mmHg 77%
    16:00 +14°C° 0.1 mm 2 mps 752 mmHg 78%
    17:00 +14°C° 0 mm 2 mps 753 mmHg 82%
    18:00 +13°C° 0 mm 2 mps 753 mmHg 85%
    19:00 +12°C° 0 mm 1 mps 753 mmHg 88%
    20:00 +12°C° 0 mm 1 mps 753 mmHg 89%
    21:00 +12°C° 0 mm 1 mps 753 mmHg 91%
    22:00 +10°C° 0 mm 0 mps 754 mmHg 92%
    23:00 +11°C° 0 mm 1 mps 754 mmHg 92%

    Tomorrow, 22 October, Sunday

    Time Temperature Precipitation Wind Pressure Humidity
    00:00 +11°C° 0 mm 1 mps 754 mmHg 92%
    01:00 +10°C° 0 mm 2 mps 754 mmHg 92%
    02:00 +10°C° 0 mm 2 mps 753 mmHg 93%
    03:00 +10°C° 0 mm 2 mps 753 mmHg 93%
    04:00 +9°C° 0 mm 3 mps 753 mmHg 93%
    05:00 +9°C° 0 mm 3 mps 753 mmHg 93%
    06:00 +9°C° 0 mm 3 mps 753 mmHg 93%
    07:00 +9°C° 0 mm 3 mps 752 mmHg 93%
    08:00 +10°C° 0 mm 4 mps 752 mmHg 90%
    09:00 +10°C° 0 mm 4 mps 752 mmHg 88%
    10:00 +11°C° 0 mm 4 mps 752 mmHg 85%
    11:00 +11°C° 0.4 mm 4 mps 752 mmHg 85%
    12:00 +11°C° 0.4 mm 4 mps 752 mmHg 85%
    13:00 +11°C° 0.4 mm 4 mps 752 mmHg 85%
    14:00 +11°C° 0.7 mm 3 mps 752 mmHg 87%
    15:00 +11°C° 0.7 mm 3 mps 752 mmHg 88%
    16:00 +10°C° 0.7 mm 2 mps 752 mmHg 90%
    17:00 +10°C° 0.2 mm 2 mps 752 mmHg 91%
    18:00 +10°C° 0.2 mm 2 mps 752 mmHg 92%
    19:00 +10°C° 0.2 mm 2 mps 752 mmHg 93%
    20:00 +10°C° 0.1 mm 2 mps 752 mmHg 93%
    21:00 +10°C° 0.1 mm 2 mps 752 mmHg 93%
    22:00 +11°C° 0.1 mm 1 mps 752 mmHg 94%
    23:00 +11°C° 0 mm 1 mps 752 mmHg 94%

    Day after tomorrow, 23 October, Monday

    Time Temperature Precipitation Wind Pressure Humidity
    00:00 +10°C° 0 mm 1 mps 752 mmHg 94%
    01:00 +10°C° 0 mm 1 mps 752 mmHg 94%
    02:00 +9°C° 0 mm 2 mps 752 mmHg 94%
    03:00 +9°C° 0 mm 2 mps 751 mmHg 93%
    04:00 +9°C° 0 mm 2 mps 751 mmHg 93%
    05:00 +9°C° 0 mm 2 mps 751 mmHg 93%
    06:00 +8°C° 0 mm 2 mps 752 mmHg 92%
    07:00 +8°C° 0 mm 2 mps 752 mmHg 92%
    08:00 +9°C° 0.1 mm 2 mps 752 mmHg 89%
    09:00 +9°C° 0.1 mm 2 mps 752 mmHg 86%
    10:00 +10°C° 0.1 mm 2 mps 752 mmHg 84%
    11:00 +10°C° 0.1 mm 2 mps 752 mmHg 82%
    12:00 +12°C° 0.1 mm 2 mps 753 mmHg 81%
    13:00 +12°C° 0.1 mm 2 mps 753 mmHg 80%
    14:00 +12°C° 0.2 mm 2 mps 753 mmHg 82%
    15:00 +10°C° 0.2 mm 2 mps 753 mmHg 84%
    16:00 +10°C° 0.2 mm 2 mps 753 mmHg 86%
    17:00 +10°C° 0.3 mm 2 mps 754 mmHg 87%
    18:00 +9°C° 0.3 mm 2 mps 754 mmHg 88%
    19:00 +9°C° 0.3 mm 2 mps 754 mmHg 90%
    20:00 +8°C° 0.2 mm 2 mps 755 mmHg 90%
    21:00 +8°C° 0.2 mm 3 mps 755 mmHg 89%
    22:00 +8°C° 0.2 mm 3 mps 756 mmHg 89%
    23:00 +8°C° 0 mm 3 mps 756 mmHg 88%

    24 October, Tuesday

    Time Temperature Precipitation Wind Pressure Humidity
    00:00 +8°C° 0 mm 3 mps 757 mmHg 88%
    01:00 +7°C° 0 mm 3 mps 757 mmHg 87%
    02:00 +7°C° 0 mm 3 mps 758 mmHg 87%
    03:00 +7°C° 0 mm 3 mps 758 mmHg 86%
    04:00 +7°C° 0 mm 3 mps 759 mmHg 85%
    05:00 +5°C° 0 mm 3 mps 759 mmHg 85%
    06:00 +5°C° 0 mm 3 mps 760 mmHg 85%
    07:00 +4°C° 0 mm 3 mps 760 mmHg 84%
    08:00 +5°C° 0 mm 3 mps 761 mmHg 80%
    09:00 +5°C° 0 mm 3 mps 761 mmHg 76%
    10:00 +7°C° 0 mm 3 mps 761 mmHg 72%
    11:00 +7°C° 0 mm 2 mps 762 mmHg 69%
    12:00 +8°C° 0 mm 2 mps 762 mmHg 66%
    13:00 +9°C° 0 mm 2 mps 762 mmHg 62%
    14:00 +9°C° 0 mm 2 mps 762 mmHg 64%
    15:00 +8°C° 0 mm 2 mps 762 mmHg 66%
    16:00 +8°C° 0 mm 2 mps 763 mmHg 68%
    17:00 +7°C° 0 mm 2 mps 763 mmHg 71%
    18:00 +6°C° 0 mm 2 mps 763 mmHg 73%
    19:00 +6°C° 0 mm 2 mps 763 mmHg 76%
    20:00 +5°C° 0 mm 2 mps 764 mmHg 76%
    21:00 +5°C° 0 mm 2 mps 764 mmHg 77%
    22:00 +4°C° 0 mm 2 mps 764 mmHg 78%
    23:00 +4°C° 0 mm 2 mps 764 mmHg 78%

    25 October, Wednesday

    Time Temperature Precipitation Wind Pressure Humidity
    00:00 +4°C° 0 mm 2 mps 764 mmHg 79%
    01:00 +3°C° 0 mm 2 mps 765 mmHg 79%
    02:00 +3°C° 0 mm 2 mps 765 mmHg 80%
    03:00 +3°C° 0 mm 2 mps 765 mmHg 80%
    04:00 +3°C° 0 mm 2 mps 765 mmHg 80%
    05:00 +2°C° 0 mm 2 mps 765 mmHg 80%
    06:00 +1°C° 0 mm 3 mps 765 mmHg 80%
    07:00 +1°C° 0 mm 3 mps 765 mmHg 81%
    08:00 +2°C° 0 mm 3 mps 765 mmHg 75%
    09:00 +3°C° 0 mm 4 mps 765 mmHg 68%
    10:00 +5°C° 0 mm 4 mps 766 mmHg 62%
    11:00 +5°C° 0 mm 4 mps 765 mmHg 59%
    12:00 +6°C° 0 mm 4 mps 765 mmHg 55%
    13:00 +7°C° 0 mm 4 mps 764 mmHg 51%
    14:00 +7°C° 0 mm 4 mps 764 mmHg 53%
    15:00 +7°C° 0 mm 3 mps 764 mmHg 55%
    16:00 +7°C° 0 mm 3 mps 764 mmHg 58%
    17:00 +7°C° 0 mm 3 mps 764 mmHg 57%
    18:00 +6°C° 0 mm 4 mps 764 mmHg 57%
    19:00 +6°C° 0 mm 4 mps 764 mmHg 57%
    20:00 +6°C° 0 mm 5 mps 764 mmHg 56%
    21:00 +6°C° 0 mm 5 mps 764 mmHg 56%
    22:00 +6°C° 0 mm 5 mps 763 mmHg 56%
    23:00 +6°C° 0 mm 5 mps 763 mmHg 56%

    26 October, Thursday

    Time Temperature Precipitation Wind Pressure Humidity
    00:00 +6°C° 0 mm 5 mps 763 mmHg 56%
    01:00 +6°C° 0 mm 4 mps 763 mmHg 56%
    02:00 +6°C° 0 mm 4 mps 762 mmHg 57%
    03:00 +6°C° 0 mm 4 mps 762 mmHg 58%
    04:00 +6°C° 0 mm 4 mps 761 mmHg 58%
    05:00 +6°C° 0 mm 4 mps 761 mmHg 60%
    06:00 +6°C° 0 mm 4 mps 761 mmHg 62%
    07:00 +6°C° 0 mm 4 mps 761 mmHg 64%
    08:00 +7°C° 0 mm 4 mps 761 mmHg 68%
    09:00 +7°C° 0 mm 4 mps 760 mmHg 72%
    10:00 +8°C° 0 mm 4 mps 760 mmHg 76%
    11:00 +10°C° 0.1 mm 4 mps 760 mmHg 79%
    12:00 +11°C° 0.1 mm 4 mps 760 mmHg 82%
    13:00 +12°C° 0.1 mm 4 mps 759 mmHg 85%
    14:00 +12°C° 0 mm 4 mps 759 mmHg 87%
    15:00 +12°C° 0 mm 3 mps 759 mmHg 89%
    16:00 +12°C° 0 mm 3 mps 758 mmHg 91%
    17:00 +12°C° 0.2 mm 3 mps 758 mmHg 92%
    18:00 +12°C° 0.2 mm 3 mps 758 mmHg 93%
    19:00 +12°C° 0.2 mm 3 mps 758 mmHg 94%
    20:00 +12°C° 0.5 mm 3 mps 757 mmHg 94%
    21:00 +12°C° 0.5 mm 3 mps 757 mmHg 95%
    22:00 +12°C° 0.5 mm 3 mps 756 mmHg 95%
    23:00 +12°C° 0.3 mm 4 mps 755 mmHg 94%
    Show more